Lid_Strength_Index
10 10 10 11 11 11 11 10 11 10 11 11 11 11 12 12 12 12 12 12 12 12 11 11 11 11 11 11 10 10 10 10 12 11 10 9 10 10 9 8 7 7 6
11 11 11 11 11 12 13 13 11 12 12 12 12 13 13 13 13 13 14 13 13 13 12 12 12 11 13 12 11 11 11 11 11 13 11 11 10 9 8 8 7 6 6
12 12 12 12 12 12 13 12 12 13 14 14 14 14 14 14 14 13 13 13 13 13 13 14 13 13 14 13 12 12 12 11 11 12 13 11 10 9 9 8 7 7 7
12 13 13 13 13 13 13 14 14 14 15 15 15 15 15 14 14 14 13 14 14 14 14 14 14 14 14 14 13 13 12 12 11 12 12 11 10 9 9 9 10 9 9
13 13 13 14 14 14 15 15 15 15 15 15 15 15 15 14 13 13 14 14 15 15 15 15 14 14 12 12 12 12 12 12 11 12 11 11 11 10 10 9 10 10 9
13 14 14 14 15 15 16 16 15 15 15 15 15 15 15 14 11 11 13 15 15 15 15 15 15 14 13 11 11 10 10 11 11 11 11 11 11 10 10 10 11 11 12
14 15 15 15 15 16 15 15 15 16 16 16 16 15 15 14 11 12 12 15 15 15 15 15 14 13 12 12 11 9 9 8 8 9 10 11 11 10 10 10 10 11 11
15 15 16 15 16 15 15 16 16 16 16 16 16 16 16 15 12 12 13 15 15 14 14 14 13 13 12 12 11 10 10 9 9 9 9 9 9 9 9 9 10 11 10
15 15 16 16 16 16 17 17 17 18 18 18 17 18 18 18 13 13 14 14 14 14 13 13 12 12 10 9 10 10 10 10 8 7 7 7 7 8 9 10 13 12 12
15 15 15 16 17 18 17 18 18 18 18 17 17 20 20 21 15 13 13 15 17 14 12 12 11 11 9 8 10 10 11 10 10 9 9 9 9 9 9 10 10 12 11
15 16 17 18 18 17 18 19 19 20 19 22 21 22 22 21 20 13 13 13 14 14 13 12 11 9 8 8 8 9 10 9 9 10 10 10 10 10 9 9 8 9 12
16 17 18 18 18 19 19 21 21 21 21 24 24 22 21 20 17 14 12 12 11 17 15 12 11 8 8 8 8 7 7 8 10 10 11 11 10 10 9 8 7 8 9
17 19 20 20 20 20 20 20 21 22 23 24 22 23 21 19 20 13 12 11 10 13 12 10 8 8 8 9 8 8 8 9 10 11 11 11 9 8 8 9 8 10 10
19 20 21 21 21 21 21 21 22 24 24 23 23 24 24 21 19 17 16 16 12 12 11 12 9 8 8 9 12 10 9 10 11 11 11 11 10 11 11 8 8 12 13
19 21 20 20 21 22 22 23 22 23 23 22 27 25 25 23 19 13 14 17 17 13 11 16 11 10 14 15 14 12 11 10 11 11 12 12 11 10 11 9 10 13 12
20 20 20 21 23 23 23 24 20 18 16 15 15 18 21 14 12 11 11 10 10 11 16 17 16 17 16 14 13 13 11 12 10 10 12 11 11 11 10 10 10 13 13
18 20 22 22 23 24 25 25 25 24 18 15 15 15 14 13 13 12 11 12 13 15 24 24 22 19 16 16 15 14 13 12 13 12 12 11 11 11 10 10 11 12 13
22 21 22 23 24 26 26 28 28 27 27 27 20 17 15 15 14 13 13 18 26 24 28 27 25 23 19 18 17 16 15 14 14 14 14 12 13 13 12 11 11 13 13
25 26 26 27 28 27 28 29 30 32 31 31 31 23 23 16 15 15 16 28 29 30 29 28 28 26 23 21 19 18 18 17 16 17 16 14 14 14 14 13 13 14 15
29 27 27 27 28 29 28 27 28 29 29 30 32 31 31 27 28 30 31 32 33 32 31 31 28 29 27 25 24 23 21 20 19 20 18 16 15 15 15 15 14 15 15
27 27 25 27 25 25 25 25 25 27 29 30 29 30 19 26 29 31 32 32 32 32 30 31 29 30 29 28 29 28 26 23 22 20 20 18 17 17 16 16 16 16 17
25 25 25 25 24 26 26 25 28 28 28 29 31 32 17 30 33 33 33 31 30 31 30 29 27 28 27 27 27 29 27 25 26 23 20 20 19 18 18 17 17 17 17
24 24 25 25 26 25 25 28 28 28 28 29 30 30 32 32 32 32 30 28 29 30 30 32 29 27 27 27 27 25 25 25 25 24 21 20 20 20 19 19 18 18 17
24 24 24 24 25 25 25 26 27 27 28 29 31 31 30 30 28 26 25 27 31 30 30 30 29 27 26 26 27 26 25 24 25 21 20 21 21 20 20 19 19 19 19
24 24 23 23 24 25 25 27 28 29 30 28 28 28 26 25 25 25 27 28 29 30 28 28 28 27 25 25 25 26 25 20 20 20 20 20 21 22 21 21 20 20 20
25 24 24 25 26 26 26 27 26 27 27 25 24 24 23 23 24 25 27 29 29 28 28 28 27 26 25 24 24 22 22 18 18 19 18 20 21 22 21 22 22 22 22